Flag for Austria Weather past 2 weeks in Bad Radkersburg, Styria, Austria

Now
38 °F

Chilly.


Feels Like: 36 °F
Forecast: 27 / 40 °F
Wind: 3 mph from Northeast

Location: Murska Sobota

Current Time: Jan 25, 2015 at 12:12:19 PM

Latest Report: Jan 25, 2015 at 11:00 AM


Visibility: N/A

Pressure: 30.11 "Hg

Humidity: 67%

Dew point: 28 °F

Location of Bad RadkersburgLocation

Historic Weather in Bad Radkersburg — Graph

°F

Bad Radkersburg temperature yesterday

Maximum temperature yesterday: 42 °F (at 12:00 AM)
Minimum temperature yesterday: 35 °F (at 9:00 PM)
Average temperature yesterday: 38 °F

Past Weeks' High & Low Weather Summary

 TemperatureHumidityPressure
High56 °F (Jan 10, 3:00 PM)100% (Jan 22, 7:00 AM)30.34 "Hg (Jan 22, 7:00 AM)
Low27 °F (Jan 13, 8:00 AM)46% (Jan 13, 3:00 PM)29.83 "Hg (Jan 10, 3:00 PM)
Average40 °F82%30.01 "Hg
* Reported Jan 10 10:00 AM — Jan 25 10:00 AM, Bad Radkersburg, Weather by CustomWeather, © 2014

Note: Actual official high and low records may vary slightly from our data, if they occured in-between our weather recording intervals... More about our weather records

Advertising

Bad Radkersburg weather history for previous 24 hours

 ConditionsComfort  
Time TempWeatherWind HumidityBarometerVisibility
10:00 AM
Jan 25
37 °FChilly.2 mph67%30.11 "HgN/A
9:00 AM36 °FChilly.3 mph69%30.10 "HgN/A
8:00 AM35 °FOvercast.2 mph77%30.08 "Hg6 mi
7:00 AM35 °FFog.1 mph84%30.04 "Hg5 mi
6:00 AM35 °FChilly.1 mph91%30.02 "HgN/A
5:00 AM34 °FChilly.1 mph94%30.01 "HgN/A
4:00 AM34 °FChilly.No wind94%29.99 "HgN/A
3:00 AM34 °FChilly.1 mph93%29.98 "HgN/A
2:00 AM35 °FChilly.No wind92%29.97 "HgN/A
1:00 AM36 °FChilly.1 mph91%29.96 "HgN/A
12:00 AM36 °FChilly.1 mph85%29.96 "HgN/A
11:00 PM
Jan 24
36 °FChilly.2 mph90%29.96 "HgN/A
10:00 PMN/APassing clouds.N/AN/AN/A2 mi
9:00 PM35 °FChilly.1 mph94%29.95 "HgN/A
8:00 PM36 °FChilly.5 mph89%29.94 "HgN/A
7:00 PM36 °FLight rain. Overcast.1 mph91%29.93 "Hg5 mi
6:00 PM36 °FChilly.1 mph90%29.92 "HgN/A
5:00 PM36 °FChilly.1 mph90%29.91 "HgN/A
4:00 PM36 °FChilly.2 mph89%29.90 "HgN/A
3:00 PM36 °FChilly.5 mph90%29.90 "HgN/A
2:00 PM36 °FDrizzle. Overcast.6 mph90%29.91 "Hg5 mi
1:00 PM36 °FDrizzle. Overcast.6 mph89%29.92 "Hg5 mi
12:00 PM36 °FChilly.6 mph86%29.94 "HgN/A
Weather by CustomWeather, © 2014

See weather overviewHow to use our weather pages